Wind_Speed
4 5 8 8 7 3 15 17 17 18 18 18 13 14 10 17 16 7 20 18 26 22 22 22 24 26 25 23 20 23 18 21 21 25 25 24 23 27 28 27 24 21 18 15 14 12 12 12 12
0 7 8 8 5 12 12 15 16 14 7 10 18 15 14 15 14 22 21 23 22 22 21 20 23 25 25 22 19 19 20 21 21 23 22 22 22 25 24 21 18 17 14 12 9 6 6 8 10
1 8 14 6 1 12 13 14 8 11 12 17 13 17 17 13 16 19 22 26 23 20 20 21 23 23 23 20 19 18 19 20 21 21 20 21 21 22 19 17 15 13 11 9 7 5 4 6 9
5 8 7 3 11 14 14 12 10 13 11 10 11 12 13 14 17 16 25 25 22 22 20 23 22 23 20 19 17 16 17 18 18 18 19 19 19 17 15 14 13 10 9 7 6 5 4 5 8
9 7 5 4 12 9 11 9 8 10 11 13 17 18 16 11 14 26 28 25 24 24 21 23 21 20 20 18 17 16 16 16 16 16 16 16 17 14 15 14 10 9 9 6 5 5 4 6 8
15 14 4 9 12 10 10 10 13 12 12 6 13 17 13 13 20 26 27 26 24 22 21 20 21 19 20 18 17 18 15 15 14 14 14 14 14 13 12 10 8 9 6 5 5 4 4 6 9
16 10 8 4 7 11 9 4 11 7 15 12 7 15 13 16 21 24 25 25 24 21 21 18 18 18 19 17 14 14 13 13 13 13 13 13 14 13 11 9 8 8 7 6 4 4 5 8 11
10 5 2 4 6 13 10 9 9 13 14 3 7 6 14 18 24 25 24 24 23 22 20 19 17 15 19 18 14 14 14 14 14 13 12 12 12 11 10 9 10 9 7 6 4 5 7 9 12
7 7 3 5 7 10 9 7 9 2 4 2 5 9 10 21 26 26 26 25 24 23 21 19 17 16 13 10 15 13 13 13 13 13 11 10 7 7 8 8 10 9 8 7 6 6 7 8 11
12 9 3 4 7 7 9 6 4 5 7 13 8 8 15 22 26 27 28 28 26 24 22 20 19 16 16 13 13 13 14 13 12 12 11 10 12 9 7 10 10 10 10 9 8 7 7 10 6
7 9 10 4 3 9 12 11 8 5 6 12 7 13 17 23 24 24 24 24 26 24 23 21 18 13 15 15 12 14 10 7 7 11 13 13 16 17 14 9 9 8 9 7 8 9 8 10 11
9 10 6 10 11 11 12 13 10 11 13 7 4 5 18 22 24 23 23 23 24 25 24 22 20 18 13 17 12 14 13 14 13 14 14 16 16 16 14 13 11 11 9 10 8 8 9 11 10
11 10 8 11 13 14 13 13 11 11 6 3 3 5 17 19 20 21 21 22 23 25 25 23 22 23 20 19 16 15 15 15 14 16 14 13 15 16 16 12 12 13 12 10 10 15 13 12 11
14 12 13 13 4 5 6 7 5 1 5 4 3 4 16 18 21 22 22 23 24 25 26 24 24 24 24 23 18 17 15 14 14 13 15 18 14 13 15 14 15 12 12 12 10 11 13 12 12
11 12 8 3 1 3 7 6 7 2 1 3 3 5 6 18 20 23 23 24 25 25 25 26 26 25 25 25 21 20 15 15 15 14 16 14 18 14 14 10 13 11 12 12 17 13 12 12 13
13 13 10 11 6 4 13 11 9 3 3 3 1 2 4 12 20 21 23 24 25 25 28 28 25 25 25 25 23 19 17 17 15 15 17 19 21 16 17 15 11 13 13 12 13 13 13 13 12
7 5 4 4 2 5 4 9 10 7 3 4 6 1 4 8 13 19 21 22 23 25 29 31 29 26 26 25 21 20 20 18 16 16 17 19 22 21 18 16 16 16 15 15 13 14 14 13 13
10 9 3 3 4 6 6 7 7 3 1 6 6 2 5 6 10 15 17 20 21 22 24 27 26 26 27 22 22 18 18 19 18 19 20 21 20 24 22 17 18 18 17 18 18 20 15 13 12
6 7 6 3 3 10 4 3 5 3 6 10 10 6 6 6 8 12 15 17 20 20 21 23 24 25 24 21 20 21 21 21 21 21 22 24 23 23 25 19 20 20 19 22 23 22 21 18 14
9 8 8 3 1 7 4 3 3 3 6 7 12 12 12 11 9 10 12 15 18 18 19 21 22 23 24 23 25 20 19 19 20 21 24 26 25 26 27 25 23 21 20 24 23 20 18 17 16
12 9 7 8 3 12 7 13 9 11 8 10 12 12 13 12 11 8 10 12 14 15 17 18 19 22 25 25 24 25 20 21 21 20 22 24 26 28 27 27 26 25 25 22 24 25 22 18 18
13 5 5 9 10 9 3 1 12 9 9 8 10 12 12 12 11 10 8 8 7 8 13 18 19 21 22 24 27 32 25 24 25 19 22 24 26 29 30 30 29 30 24 25 22 24 24 23 20
7 6 6 9 11 12 12 7 11 10 7 7 11 8 9 8 9 8 9 8 7 5 5 7 16 19 20 25 29 31 37 25 23 29 26 29 23 31 31 32 32 31 32 25 25 25 28 22 22
7 10 14 13 13 12 10 4 5 8 7 8 9 7 5 6 7 7 6 5 4 3 1 1 4 13 18 21 24 31 30 29 27 28 35 35 24 28 32 36 34 32 30 31 28 29 28 27 25
11 16 10 8 10 3 8 5 7 9 7 6 8 3 3 2 5 4 3 2 2 2 2 2 3 4 10 17 18 31 31 35 32 34 36 38 29 27 33 37 39 36 35 32 30 31 29 28 28
6 8 7 11 10 12 6 6 5 8 7 7 4 4 2 2 5 4 3 3 4 5 6 5 4 5 7 11 19 26 28 30 32 35 39 36 39 32 31 39 35 37 33 34 33 30 29 27 28
4 8 9 10 17 12 11 4 9 10 6 6 1 3 4 6 7 5 5 5 7 7 7 7 7 8 9 10 13 18 24 32 32 34 35 42 33 35 34 38 36 32 36 36 36 32 30 31 30
10 11 10 9 6 10 6 4 8 9 6 3 4 8 9 11 12 12 10 10 9 10 10 9 10 11 11 12 12 15 20 24 32 34 35 36 44 39 36 36 35 36 34 37 38 33 31 34 32
8 10 6 9 8 11 10 4 8 3 3 3 9 15 18 15 13 13 13 13 13 13 13 13 12 13 13 12 13 13 16 18 21 29 34 38 39 40 43 38 33 37 35 33 37 35 33 33 34
10 15 16 10 10 9 11 11 9 7 5 9 12 12 14 13 13 13 14 15 15 15 14 14 14 14 13 13 13 13 15 17 21 25 29 32 36 38 40 43 46 37 37 35 34 34 32 36 32
Wind_Direction
264 340 299 285 273 145 69 64 51 54 45 52 49 55 71 36 12 74 133 133 133 142 148 144 144 140 136 131 126 130 136 135 137 142 138 135 134 135 137 136 137 139 139 130 119 110 91 77 83
178 271 282 265 237 69 67 68 62 51 39 63 37 79 59 62 68 119 126 135 137 143 141 147 143 144 142 134 129 135 140 140 141 142 139 139 138 139 142 143 140 144 144 141 135 123 94 76 76
111 264 274 247 316 53 69 59 77 75 45 42 81 55 48 84 110 123 135 137 139 140 144 153 143 147 146 146 140 140 141 143 145 146 143 146 143 145 148 148 145 144 150 151 144 139 117 85 84
284 257 232 301 72 70 54 56 14 61 47 61 58 98 84 103 125 135 139 140 139 144 151 146 147 148 146 148 142 144 141 144 148 151 150 148 151 152 149 148 152 158 157 159 151 142 122 101 105
278 308 295 83 76 77 89 77 71 89 74 37 59 72 100 113 131 141 144 146 141 145 150 148 148 152 145 151 145 140 147 148 154 158 156 157 159 160 158 149 148 157 155 147 145 140 133 123 126
267 150 279 115 89 82 65 8 25 40 72 81 91 104 99 132 141 147 149 150 147 149 148 154 153 154 149 148 153 151 155 155 157 162 164 166 165 169 172 172 172 156 165 159 152 155 139 142 136
283 306 34 154 108 76 41 358 30 13 45 59 355 71 121 143 152 153 154 153 153 155 158 158 160 163 158 154 151 156 164 164 168 170 169 170 173 183 187 184 192 183 181 168 180 173 163 158 153
295 274 203 348 5 73 64 12 52 17 66 65 4 29 152 152 158 158 159 159 159 158 163 165 168 168 171 166 167 167 174 171 175 174 177 176 180 189 196 196 203 201 202 197 191 176 172 171 173
251 265 100 10 342 20 7 3 45 63 360 77 11 58 124 155 159 160 163 167 167 168 170 170 177 175 189 180 178 181 182 178 180 181 183 184 176 201 203 183 216 208 200 199 185 170 179 178 179
265 286 70 64 324 311 325 346 347 320 325 54 117 108 136 155 164 168 171 174 176 176 176 176 184 193 184 180 200 191 188 191 186 187 210 173 191 195 154 206 205 205 204 202 195 183 187 166 184
289 299 13 281 327 317 314 306 339 319 295 5 37 137 155 163 171 175 178 181 182 181 180 180 181 186 188 182 217 183 201 208 227 207 193 186 205 197 197 199 199 197 198 200 205 209 196 204 194
274 283 297 302 317 297 284 291 295 299 324 311 37 155 164 173 177 179 182 184 185 187 186 185 185 183 178 180 188 193 194 200 202 234 217 207 201 201 204 191 187 188 218 191 200 213 196 211 214
254 282 315 293 293 290 282 270 278 294 289 265 352 169 170 182 182 184 185 188 189 190 190 190 188 190 188 190 195 193 198 199 202 222 232 208 212 212 209 193 182 190 192 211 207 207 213 211 216
318 309 292 277 342 313 290 266 216 114 342 271 283 175 186 184 188 186 188 189 191 192 191 192 191 194 189 191 194 197 196 202 202 203 212 202 228 221 218 197 192 197 198 204 204 223 231 207 225
285 276 252 137 65 325 312 208 102 315 244 220 220 148 176 178 191 192 192 190 188 190 190 192 191 192 192 192 192 194 201 195 199 205 210 221 203 224 217 217 204 205 213 205 209 209 218 225 225
247 247 236 122 300 93 294 127 139 359 293 280 278 102 171 185 187 194 195 192 188 188 189 189 190 194 193 197 195 195 198 200 205 205 216 223 203 207 210 202 218 210 215 215 209 219 219 227 231
194 269 17 107 137 312 278 344 50 328 276 306 276 25 133 167 189 188 193 193 193 191 190 190 190 193 195 202 198 200 202 205 203 208 205 234 211 206 203 202 212 210 213 220 215 217 219 226 228
3 334 29 312 57 309 261 357 61 356 238 62 32 340 152 172 182 173 188 191 193 194 195 195 196 197 200 197 198 205 209 213 214 214 210 221 216 203 213 208 203 216 213 220 219 215 211 221 233
319 293 288 110 59 281 60 346 74 68 69 80 65 72 81 125 148 167 182 190 192 193 197 200 204 203 201 199 202 206 210 216 219 217 219 218 213 210 216 206 224 212 214 221 226 222 217 213 220
276 271 258 179 147 270 288 222 113 118 88 72 91 69 94 111 126 152 176 182 191 195 201 205 207 210 209 210 211 215 217 222 224 226 227 218 219 220 213 208 215 221 215 226 225 226 224 230 228
250 272 331 319 317 243 261 233 178 146 164 129 107 93 83 86 103 131 159 180 192 201 207 215 216 218 218 207 230 210 217 230 226 225 229 234 228 224 220 225 209 218 220 227 235 232 225 226 234
276 62 290 278 276 302 186 85 185 143 161 178 127 112 96 97 99 109 129 154 176 187 210 216 223 220 222 221 224 227 225 240 234 224 234 225 239 233 232 220 229 213 224 221 233 234 228 232 232
34 326 298 293 276 273 256 242 121 185 173 162 110 91 97 93 94 102 108 119 134 154 187 209 228 230 224 236 231 229 230 233 228 234 229 241 224 250 234 236 224 229 223 230 226 233 238 233 234
329 272 245 242 248 247 229 304 284 60 71 123 114 110 103 101 103 98 101 104 108 111 128 201 207 215 237 233 238 238 227 234 218 239 223 226 224 233 249 229 232 230 231 226 228 234 238 240 236
245 261 276 230 233 265 114 279 299 89 80 25 86 127 106 95 96 94 82 57 57 30 360 1 263 230 224 247 255 246 241 233 231 223 237 235 233 221 239 236 225 232 232 227 229 232 235 241 241
315 325 304 303 298 313 336 252 114 67 105 124 155 193 240 45 24 348 349 339 340 339 332 332 305 269 259 247 246 256 256 245 239 234 226 234 233 231 233 241 233 231 230 233 229 230 236 239 244
170 255 1 306 265 247 256 186 159 132 167 185 283 0 5 356 320 323 306 297 295 303 308 309 306 292 278 275 269 268 259 255 240 231 235 225 229 226 229 230 241 239 236 230 235 230 234 237 240
269 333 280 234 267 278 297 314 248 162 186 161 296 336 323 318 311 308 306 301 297 294 298 295 294 289 284 279 276 269 263 254 246 245 235 231 226 227 226 224 235 243 236 234 231 231 237 236 239
187 236 204 277 310 298 293 301 70 2 282 351 324 316 337 320 300 304 307 305 302 297 293 290 291 287 286 279 273 274 257 255 250 246 244 238 233 228 224 226 224 233 240 230 232 232 229 240 244
275 280 281 282 290 296 308 284 15 34 324 298 291 319 317 317 315 311 308 305 304 300 296 292 292 287 281 281 282 278 273 264 257 248 242 241 237 236 231 227 226 228 230 232 231 234 231 231 236
Height
1495 1493 1497 1497 1495 1457 1467 1472 1465 1473 1474 1477 1479 1478 1482 1483 1482 1500 1507 1512 1515 1520 1523 1525 1526 1527 1531 1531 1534 1535 1537 1539 1543 1545 1547 1549 1551 1553 1556 1558 1561 1563 1565 1567 1568 1569 1570 1571 1572
1498 1499 1496 1491 1490 1471 1476 1466 1475 1477 1476 1476 1478 1477 1482 1489 1493 1499 1508 1514 1519 1522 1526 1527 1528 1531 1533 1534 1536 1538 1541 1543 1547 1548 1550 1552 1555 1556 1559 1562 1564 1566 1567 1569 1570 1571 1572 1573 1573
1496 1497 1492 1467 1467 1482 1478 1469 1471 1476 1477 1476 1479 1485 1488 1495 1499 1503 1510 1515 1520 1525 1528 1528 1530 1532 1535 1537 1538 1542 1543 1546 1549 1551 1553 1555 1558 1560 1562 1564 1566 1568 1569 1570 1571 1573 1574 1575 1575
1498 1493 1492 1502 1470 1470 1469 1473 1470 1471 1474 1478 1477 1485 1496 1499 1502 1506 1512 1517 1521 1526 1530 1529 1532 1534 1537 1540 1542 1544 1546 1548 1551 1553 1555 1558 1561 1563 1564 1565 1568 1570 1571 1572 1573 1574 1575 1576 1577
1496 1490 1481 1469 1473 1469 1469 1473 1475 1473 1477 1480 1480 1489 1498 1502 1504 1507 1513 1518 1522 1527 1529 1531 1535 1537 1539 1542 1544 1546 1549 1551 1554 1556 1557 1560 1562 1564 1566 1567 1569 1571 1572 1573 1574 1575 1577 1577 1579
1489 1492 1494 1485 1478 1471 1472 1473 1471 1471 1474 1480 1480 1487 1497 1503 1507 1510 1514 1519 1523 1526 1531 1533 1536 1540 1540 1544 1546 1549 1551 1553 1555 1558 1559 1562 1564 1566 1568 1569 1571 1572 1573 1574 1576 1577 1578 1579 1580
1486 1476 1480 1477 1477 1475 1475 1476 1473 1473 1476 1482 1482 1484 1499 1503 1507 1512 1516 1520 1524 1528 1532 1535 1537 1540 1543 1545 1547 1549 1552 1555 1557 1559 1561 1562 1564 1567 1569 1570 1572 1573 1574 1575 1576 1577 1579 1580 1582
1493 1479 1482 1473 1476 1480 1476 1473 1478 1478 1480 1483 1484 1482 1493 1501 1506 1512 1517 1521 1525 1529 1533 1536 1540 1541 1544 1546 1549 1554 1554 1556 1558 1560 1562 1563 1565 1567 1568 1570 1572 1573 1574 1575 1576 1578 1579 1581 1583
1494 1482 1482 1485 1482 1480 1477 1477 1478 1482 1479 1480 1484 1485 1489 1499 1505 1511 1516 1521 1525 1529 1532 1537 1540 1541 1544 1546 1548 1551 1554 1555 1559 1561 1562 1564 1567 1567 1568 1570 1572 1573 1574 1576 1576 1578 1580 1581 1583
1488 1477 1477 1480 1480 1483 1479 1479 1479 1478 1477 1476 1479 1489 1494 1500 1506 1510 1514 1518 1523 1528 1532 1536 1539 1541 1544 1547 1548 1549 1553 1555 1559 1561 1563 1567 1569 1570 1570 1570 1571 1573 1574 1576 1577 1579 1581 1582 1585
1482 1481 1477 1479 1480 1484 1481 1480 1478 1477 1477 1476 1480 1487 1494 1500 1505 1510 1515 1519 1523 1527 1531 1535 1538 1539 1544 1549 1549 1551 1553 1554 1557 1560 1563 1566 1566 1568 1570 1570 1571 1574 1574 1576 1577 1578 1581 1584 1586
1488 1479 1482 1481 1482 1483 1481 1479 1479 1479 1477 1479 1480 1485 1493 1499 1503 1508 1513 1517 1522 1526 1530 1534 1538 1540 1543 1547 1549 1553 1556 1558 1559 1559 1560 1562 1564 1566 1567 1569 1572 1575 1576 1578 1579 1581 1583 1585 1585
1486 1483 1483 1482 1482 1480 1480 1479 1478 1478 1477 1478 1480 1484 1490 1497 1502 1507 1511 1515 1519 1523 1527 1531 1535 1538 1542 1546 1549 1551 1554 1557 1559 1559 1559 1560 1562 1563 1566 1568 1571 1573 1576 1578 1579 1581 1583 1583 1585
1484 1484 1482 1479 1478 1478 1477 1475 1475 1475 1478 1478 1478 1481 1485 1492 1498 1502 1507 1511 1515 1520 1524 1529 1532 1535 1539 1543 1546 1549 1552 1555 1557 1559 1560 1561 1561 1562 1564 1566 1569 1571 1574 1577 1578 1579 1581 1583 1585
1485 1483 1473 1476 1478 1474 1476 1473 1472 1478 1477 1476 1476 1478 1482 1487 1494 1498 1503 1507 1511 1516 1521 1526 1530 1532 1535 1539 1543 1546 1550 1552 1555 1557 1558 1558 1560 1561 1563 1565 1568 1569 1572 1575 1577 1579 1581 1583 1583
1481 1471 1470 1470 1475 1475 1472 1474 1472 1476 1474 1474 1475 1477 1482 1484 1489 1495 1500 1504 1509 1513 1517 1522 1526 1529 1532 1535 1539 1543 1547 1549 1552 1554 1555 1556 1559 1561 1562 1565 1567 1570 1572 1573 1576 1577 1579 1580 1581
1471 1471 1474 1472 1474 1475 1473 1473 1468 1474 1474 1475 1476 1476 1481 1484 1487 1493 1499 1504 1508 1512 1515 1518 1521 1524 1529 1533 1536 1540 1543 1547 1549 1552 1554 1551 1555 1558 1561 1563 1565 1568 1571 1571 1573 1575 1576 1578 1579
1478 1477 1470 1479 1471 1471 1468 1471 1471 1475 1472 1475 1477 1479 1481 1484 1489 1493 1499 1503 1508 1512 1515 1518 1520 1523 1525 1531 1534 1538 1542 1544 1547 1548 1550 1549 1551 1553 1555 1560 1562 1564 1567 1569 1570 1570 1573 1574 1575
1480 1480 1479 1473 1474 1476 1473 1474 1473 1475 1473 1477 1481 1481 1482 1484 1489 1494 1499 1503 1507 1511 1514 1517 1520 1523 1526 1530 1532 1534 1536 1539 1542 1544 1547 1547 1548 1550 1551 1555 1558 1560 1563 1565 1566 1567 1568 1569 1572
1480 1481 1475 1471 1475 1476 1469 1472 1472 1475 1478 1480 1484 1485 1483 1488 1492 1496 1499 1502 1505 1509 1513 1515 1518 1521 1524 1527 1528 1532 1534 1537 1538 1542 1543 1544 1543 1545 1547 1550 1554 1555 1559 1559 1561 1562 1565 1566 1568
1478 1478 1475 1479 1471 1467 1470 1470 1472 1473 1477 1481 1485 1490 1490 1492 1494 1497 1500 1503 1505 1508 1512 1514 1515 1518 1519 1523 1524 1525 1529 1536 1535 1537 1540 1541 1544 1543 1543 1543 1548 1551 1553 1555 1555 1557 1559 1562 1563
1476 1474 1479 1479 1480 1478 1466 1485 1468 1468 1470 1475 1481 1486 1492 1495 1498 1500 1501 1503 1505 1507 1509 1510 1512 1514 1516 1517 1519 1518 1520 1525 1533 1532 1535 1534 1535 1540 1542 1540 1540 1544 1547 1550 1551 1552 1554 1556 1558
1482 1478 1478 1477 1478 1475 1467 1478 1469 1465 1471 1471 1477 1487 1493 1496 1499 1501 1502 1504 1506 1507 1508 1508 1509 1510 1512 1512 1515 1516 1516 1520 1526 1524 1528 1532 1526 1531 1535 1537 1536 1538 1541 1545 1546 1548 1548 1551 1553
1481 1480 1475 1471 1470 1482 1463 1472 1468 1465 1469 1472 1480 1489 1494 1496 1499 1501 1503 1504 1505 1506 1506 1506 1505 1506 1506 1507 1508 1511 1512 1513 1518 1518 1519 1521 1515 1521 1525 1531 1530 1533 1535 1537 1539 1541 1543 1545 1548
1480 1476 1485 1484 1476 1477 1465 1478 1470 1467 1473 1476 1481 1489 1494 1495 1497 1499 1501 1503 1504 1504 1504 1503 1502 1502 1503 1503 1498 1506 1504 1506 1508 1512 1511 1513 1515 1510 1514 1522 1522 1523 1526 1530 1533 1534 1536 1538 1540
1479 1484 1495 1511 1495 1480 1462 1485 1472 1473 1478 1484 1489 1490 1493 1494 1496 1499 1501 1502 1502 1502 1501 1500 1499 1499 1499 1500 1500 1499 1496 1498 1500 1502 1502 1505 1507 1508 1511 1512 1515 1516 1520 1522 1525 1527 1529 1532 1534
1482 1492 1473 1491 1480 1485 1470 1461 1461 1469 1476 1481 1484 1489 1491 1496 1499 1499 1500 1500 1501 1500 1499 1498 1495 1495 1494 1493 1493 1490 1489 1488 1490 1492 1494 1497 1498 1502 1506 1506 1506 1508 1510 1514 1517 1521 1524 1525 1527
1485 1480 1494 1478 1505 1504 1474 1475 1473 1474 1474 1478 1484 1487 1491 1496 1497 1497 1497 1497 1497 1497 1495 1494 1493 1491 1489 1488 1486 1484 1481 1479 1480 1482 1486 1486 1490 1493 1498 1498 1498 1500 1502 1505 1510 1513 1516 1518 1520
1482 1483 1482 1478 1485 1497 1499 1480 1463 1472 1474 1480 1486 1488 1491 1493 1494 1494 1494 1494 1494 1492 1491 1490 1487 1485 1484 1483 1481 1478 1476 1474 1473 1473 1474 1476 1481 1483 1486 1489 1491 1492 1494 1498 1501 1504 1509 1511 1513
1480 1484 1483 1488 1495 1481 1485 1484 1460 1471 1477 1481 1484 1487 1492 1493 1492 1492 1492 1491 1490 1488 1486 1484 1483 1481 1479 1477 1474 1472 1471 1470 1468 1467 1467 1469 1470 1474 1475 1478 1482 1484 1487 1491 1494 1496 1500 1504 1506